Probability
0 0 0 0 0 0 0 0 0 0 0 0 0 0 0 0 0 0 0 0 0 0 0 0 0 0 0 0 0 0 0 0 0 0 0 0 0 0 0 0 0 0 0 0
0 0 0 0 0 0 0 0 0 0 0 0 0 0 0 0 0 0 0 0 0 0 0 0 0 0 0 0 0 0 0 0 0 0 0 0 0 0 0 0 0 0 0 0
0 0 0 0 0 0 0 0 0 0 0 0 0 0 0 0 0 0 0 0 0 0 0 0 0 0 0 0 0 0 0 0 0 0 0 0 0 0 0 0 0 0 0 0
0 0 0 0 0 0 0 0 0 0 0 0 0 0 0 0 0 0 0 0 0 0 0 0 0 0 0 0 0 0 0 0 0 0 0 0 0 0 0 0 0 0 0 0
0 0 0 0 0 0 0 0 0 0 0 0 0 0 0 0 0 0 0 0 0 0 0 0 0 0 0 0 0 0 0 0 0 0 0 0 0 0 0 0 0 0 0 0
0 0 0 0 0 0 0 0 0 0 0 0 0 0 0 0 0 0 0 0 0 0 0 0 0 0 0 0 0 0 0 0 0 0 0 0 0 0 0 0 0 0 0 0
0 0 0 0 0 0 0 0 0 0 0 0 0 0 0 0 0 0 0 0 0 0 0 0 0 0 0 0 0 0 0 0 0 0 0 0 0 0 0 0 0 0 0 0
0 0 0 0 0 0 0 0 0 0 0 0 0 0 0 0 0 0 0 0 0 0 0 0 0 0 0 0 0 0 0 0 0 0 0 0 0 0 0 0 0 0 0 0
0 0 0 0 0 0 0 0 0 0 0 0 0 0 0 0 0 0 0 0 0 0 0 0 0 0 0 0 0 0 0 0 0 0 0 0 0 0 0 0 0 0 0 0
0 0 0 0 0 0 0 0 0 0 0 0 0 0 0 0 0 0 0 0 0 0 0 0 0 0 0 0 0 0 0 0 0 0 0 0 0 0 0 0 0 0 0 0
0 0 0 0 0 0 0 0 0 0 0 0 0 0 0 0 0 0 0 0 0 0 0 0 0 0 0 0 0 0 0 0 0 0 0 0 0 0 0 0 0 0 0 0
0 0 0 0 0 0 0 0 0 0 0 0 0 0 0 0 0 0 0 0 0 0 0 0 0 0 0 0 0 0 0 0 0 0 0 0 0 0 0 0 0 0 0 0
0 0 0 0 0 0 0 0 0 0 0 0 0 0 0 0 0 0 0 0 0 0 0 0 0 0 0 0 0 0 0 0 0 0 0 0 0 0 0 0 0 0 0 0
0 0 0 0 0 0 0 0 0 0 0 0 0 0 0 0 0 0 0 0 0 0 0 0 0 0 0 0 0 0 0 0 0 0 0 0 0 0 0 0 0 0 0 0
0 0 0 0 0 0 0 0 0 0 0 0 0 0 0 0 0 0 0 0 0 0 0 0 0 0 0 0 0 0 0 0 0 0 0 0 0 0 0 0 0 0 0 0
0 0 0 0 0 0 0 0 0 0 0 0 0 0 0 0 0 0 0 0 0 0 0 0 0 0 0 0 0 0 0 0 0 0 0 0 0 0 0 0 0 0 0 0
0 0 0 0 0 0 0 0 0 0 0 0 0 0 0 0 0 0 0 0 0 0 0 0 0 0 0 0 0 0 0 0 0 0 0 0 0 0 0 0 0 0 0 0
0 0 0 0 0 0 0 0 0 0 0 0 0 0 0 0 0 0 0 0 0 0 0 0 0 0 0 0 0 0 0 0 0 0 0 0 0 0 0 0 0 0 0 0
0 0 0 0 0 0 0 0 0 0 0 0 0 0 0 0 0 0 0 0 0 0 0 0 0 0 0 0 0 0 0 0 0 0 0 0 0 0 0 0 0 0 0 0
0 0 0 0 0 0 0 0 0 0 0 0 0 0 0 0 0 0 0 0 0 0 0 0 0 0 0 0 0 0 0 0 0 0 0 0 0 0 0 0 0 0 0 0
0 0 0 0 0 0 0 0 0 0 0 0 0 0 0 0 0 0 0 0 0 0 0 0 0 0 0 0 0 0 0 0 0 0 0 0 0 0 0 0 0 0 0 0
0 0 0 0 0 0 0 0 0 0 0 0 0 0 0 0 0 0 0 0 0 0 0 0 0 0 0 0 0 0 0 0 0 0 0 0 0 0 0 0 0 0 0 0
0 0 0 0 0 0 0 0 0 0 0 0 0 0 0 0 0 0 0 0 0 0 0 0 0 0 0 0 0 0 0 0 0 0 0 0 0 0 0 0 0 0 0 0
0 0 0 0 0 0 0 0 0 0 0 0 0 0 0 0 0 0 0 0 0 0 0 0 0 0 0 0 0 0 0 0 0 0 0 0 0 0 0 0 0 0 0 0
0 0 0 0 0 0 0 0 0 0 0 0 0 0 0 0 0 0 0 0 0 0 0 0 0 0 0 0 0 0 0 0 0 0 0 0 0 0 0 0 0 0 0 0
0 0 0 0 0 0 0 0 0 0 0 0 0 0 0 0 0 0 0 0 0 0 0 0 0 0 0 0 0 0 0 0 0 0 0 0 0 0 0 0 0 0 0 0
0 0 0 0 0 0 0 0 0 0 0 0 0 0 0 0 0 0 0 0 0 0 0 0 0 0 0 0 0 0 0 0 0 0 0 0 0 0 0 0 0 0 0 0
Height
5829 5830 5831 5832 5833 5835 5836 5837 5838 5839 5840 5841 5841 5842 5843 5843 5844 5844 5845 5845 5845 5845 5845 5845 5845 5845 5844 5843 5842 5841 5840 5839 5838 5836 5834 5832 5831 5829 5827 5825 5823 5821 5819 5817
5827 5828 5829 5831 5832 5833 5834 5835 5836 5837 5839 5839 5840 5840 5841 5842 5842 5842 5842 5842 5842 5842 5842 5841 5841 5841 5840 5840 5839 5838 5837 5835 5834 5832 5830 5829 5827 5825 5823 5821 5819 5817 5815 5813
5826 5826 5827 5829 5830 5831 5832 5833 5834 5836 5837 5837 5838 5838 5839 5839 5840 5840 5839 5839 5839 5839 5838 5838 5837 5837 5836 5835 5834 5833 5832 5831 5829 5828 5826 5824 5823 5821 5819 5817 5815 5812 5810 5808
5823 5825 5826 5829 5828 5829 5830 5831 5832 5833 5834 5835 5835 5836 5836 5836 5836 5836 5836 5836 5835 5835 5834 5834 5833 5832 5831 5830 5829 5828 5827 5825 5824 5823 5821 5819 5817 5815 5813 5811 5809 5806 5804 5801
5820 5821 5823 5825 5825 5826 5827 5828 5829 5830 5831 5831 5832 5832 5833 5833 5833 5833 5832 5832 5831 5830 5830 5829 5828 5827 5826 5825 5824 5822 5821 5820 5818 5816 5814 5812 5810 5808 5806 5804 5801 5799 5796 5794
5817 5818 5819 5822 5822 5823 5824 5825 5826 5826 5827 5828 5828 5829 5830 5829 5829 5828 5828 5827 5826 5825 5824 5823 5822 5821 5820 5819 5817 5816 5814 5813 5811 5809 5807 5805 5802 5800 5798 5796 5793 5790 5788 5785
5812 5814 5815 5818 5818 5819 5822 5823 5822 5823 5823 5823 5824 5825 5825 5824 5823 5823 5822 5821 5820 5819 5818 5817 5816 5814 5813 5812 5810 5809 5807 5805 5803 5801 5798 5796 5794 5791 5789 5786 5784 5781 5779 5776
5808 5809 5813 5813 5813 5815 5817 5817 5817 5818 5818 5818 5819 5819 5819 5818 5818 5817 5816 5815 5814 5813 5812 5810 5808 5807 5805 5804 5802 5800 5798 5796 5794 5791 5789 5786 5784 5781 5778 5776 5773 5771 5768 5766
5804 5807 5807 5808 5809 5810 5811 5811 5812 5812 5813 5813 5813 5812 5812 5812 5811 5811 5810 5808 5807 5806 5804 5803 5801 5799 5797 5795 5793 5791 5789 5786 5784 5781 5779 5776 5773 5770 5767 5764 5762 5759 5757 5755
5798 5799 5801 5802 5803 5804 5805 5805 5805 5806 5806 5806 5806 5806 5806 5805 5804 5803 5802 5801 5799 5798 5796 5794 5792 5790 5787 5785 5783 5781 5778 5776 5773 5770 5767 5764 5761 5758 5755 5752 5749 5747 5745 5742
5791 5793 5794 5796 5796 5797 5797 5798 5798 5798 5799 5799 5799 5798 5797 5797 5796 5795 5794 5792 5790 5789 5787 5785 5782 5780 5777 5775 5772 5769 5766 5764 5761 5758 5755 5752 5749 5745 5742 5739 5735 5733 5730 5728
5785 5787 5788 5789 5789 5790 5790 5790 5790 5791 5791 5791 5790 5789 5789 5788 5787 5785 5784 5783 5781 5778 5776 5774 5771 5769 5766 5763 5760 5757 5754 5751 5748 5744 5741 5738 5735 5732 5728 5724 5721 5717 5715 5712
5778 5779 5780 5781 5781 5782 5782 5782 5782 5782 5782 5782 5781 5780 5779 5778 5777 5776 5774 5772 5770 5768 5765 5762 5760 5757 5754 5751 5747 5744 5741 5737 5734 5731 5727 5724 5720 5717 5714 5711 5706 5702 5699 5695
5769 5770 5771 5772 5773 5773 5773 5773 5773 5773 5773 5772 5771 5771 5769 5768 5767 5765 5763 5761 5759 5756 5753 5750 5748 5744 5741 5738 5734 5731 5727 5723 5720 5716 5712 5709 5705 5701 5697 5694 5692 5688 5683 5679
5762 5762 5763 5764 5764 5764 5764 5764 5764 5764 5763 5762 5761 5760 5759 5757 5756 5754 5751 5749 5747 5744 5741 5738 5735 5731 5728 5724 5720 5717 5713 5709 5705 5701 5697 5693 5689 5685 5681 5677 5673 5670 5666 5662
5753 5754 5754 5755 5755 5755 5755 5755 5754 5754 5753 5752 5751 5749 5748 5746 5743 5741 5739 5737 5734 5731 5728 5725 5721 5718 5714 5710 5706 5702 5698 5694 5689 5685 5681 5677 5672 5668 5664 5660 5656 5652 5648 5644
5744 5744 5745 5745 5745 5745 5745 5744 5744 5743 5742 5741 5739 5738 5736 5733 5731 5728 5726 5723 5720 5717 5714 5711 5707 5703 5699 5695 5691 5686 5682 5678 5673 5668 5664 5659 5655 5650 5646 5642 5637 5633 5629 5624
5733 5734 5734 5735 5734 5734 5734 5733 5733 5732 5730 5729 5727 5725 5723 5721 5718 5715 5712 5710 5706 5703 5699 5695 5691 5687 5683 5679 5674 5670 5666 5661 5656 5651 5646 5642 5637 5632 5628 5623 5619 5614 5610 5606
5722 5723 5723 5723 5723 5722 5722 5721 5720 5719 5718 5716 5714 5712 5709 5707 5704 5701 5698 5695 5692 5688 5685 5680 5676 5672 5667 5663 5658 5654 5649 5644 5639 5634 5629 5624 5619 5614 5609 5604 5600 5595 5591 5587
5710 5711 5711 5711 5710 5710 5709 5709 5707 5706 5704 5702 5700 5698 5695 5692 5690 5687 5684 5680 5676 5672 5669 5665 5660 5656 5651 5646 5642 5637 5632 5626 5621 5616 5611 5606 5601 5596 5591 5586 5581 5577 5572 5568
5698 5698 5698 5698 5698 5697 5696 5695 5693 5692 5690 5688 5686 5683 5681 5678 5675 5672 5668 5665 5661 5657 5653 5648 5644 5639 5635 5630 5625 5620 5614 5609 5604 5598 5593 5588 5583 5578 5574 5569 5564 5560 5555 5551
5685 5685 5685 5685 5684 5683 5682 5680 5679 5677 5675 5673 5671 5668 5666 5663 5660 5656 5653 5649 5645 5641 5637 5632 5628 5623 5618 5613 5608 5603 5597 5592 5586 5581 5576 5571 5566 5562 5557 5552 5548 5543 5539 5535
5672 5672 5671 5671 5670 5669 5668 5666 5665 5663 5661 5658 5656 5653 5651 5648 5644 5641 5638 5634 5629 5625 5621 5616 5611 5607 5602 5597 5591 5586 5580 5575 5570 5564 5560 5555 5550 5545 5541 5537 5532 5528 5524 5520
5659 5658 5658 5657 5656 5655 5654 5652 5650 5649 5646 5644 5641 5638 5635 5632 5629 5625 5622 5618 5614 5609 5605 5600 5595 5590 5585 5580 5574 5569 5564 5558 5553 5549 5544 5539 5534 5530 5526 5521 5517 5513 5509 5505
5645 5645 5644 5643 5643 5641 5640 5638 5636 5634 5632 5629 5627 5624 5620 5617 5614 5611 5607 5603 5598 5594 5589 5584 5579 5574 5569 5563 5558 5553 5548 5542 5538 5533 5528 5524 5520 5515 5511 5507 5503 5499 5495 5491
5632 5631 5630 5629 5628 5627 5626 5624 5622 5620 5617 5615 5612 5609 5606 5602 5599 5595 5591 5587 5583 5578 5574 5569 5564 5558 5553 5548 5543 5538 5533 5528 5523 5518 5514 5509 5505 5501 5497 5492 5488 5484 5481 5477
5618 5617 5617 5616 5614 5613 5611 5609 5607 5605 5603 5600 5598 5595 5591 5588 5585 5581 5577 5573 5568 5563 5559 5554 5549 5543 5538 5533 5528 5523 5518 5514 5509 5504 5500 5495 5491 5487 5483 5479 5475 5471 5467 5464
Wind_Speed
10 11 11 10 10 10 8 7 6 6 5 6 5 5 5 5 5 6 7 8 9 9 9 9 10 10 10 10 11 11 12 13 13 14 14 15 15 15 16 16 16 17 17 17
10 10 10 10 10 9 9 9 8 8 7 7 6 6 6 6 6 7 8 9 9 10 10 11 12 12 12 13 13 14 15 15 15 15 16 16 17 17 17 17 18 19 19 19
11 11 11 10 10 10 10 10 10 9 8 7 7 7 7 8 8 9 10 10 11 12 12 13 14 14 15 15 16 17 17 18 18 18 18 18 19 20 20 20 20 20 21 22
13 12 12 11 11 11 11 11 10 9 9 8 8 9 9 9 10 10 11 12 13 14 14 15 16 16 17 18 19 19 20 20 21 21 21 21 22 22 23 23 24 24 24 25
14 15 14 13 13 12 12 11 11 10 10 10 10 11 11 11 12 12 13 14 15 16 17 17 18 19 20 20 21 22 22 23 23 24 24 24 25 26 26 26 27 28 28 28
16 16 15 13 13 13 13 12 12 12 12 12 12 13 13 14 14 15 16 17 17 18 19 20 21 21 22 23 23 24 25 25 26 27 27 28 28 29 29 29 30 30 31 31
16 16 15 14 14 14 13 12 13 14 14 14 15 15 15 16 17 18 19 19 20 21 22 23 23 24 25 26 26 27 28 29 29 30 31 31 32 32 32 32 33 33 33 33
18 18 16 15 15 15 14 15 15 15 16 17 17 18 18 19 20 21 22 22 23 24 25 26 26 27 28 29 30 30 31 32 33 34 34 34 35 35 35 36 35 35 35 35
20 19 17 17 17 17 17 17 17 18 18 19 20 21 21 22 23 24 25 26 26 27 28 28 29 30 31 32 33 33 34 35 36 37 37 38 38 38 38 39 39 38 38 38
21 20 19 19 19 20 20 20 20 21 21 22 23 24 25 25 26 27 28 28 29 30 30 31 32 33 34 35 36 36 38 39 39 40 40 41 41 41 42 42 42 42 42 41
22 21 20 21 21 22 22 23 23 24 24 25 26 27 27 28 28 29 30 31 32 33 33 34 35 36 37 38 39 40 41 42 43 43 43 43 44 45 45 45 45 45 45 45
23 23 23 23 24 24 25 25 26 26 27 27 28 29 30 31 32 32 33 33 35 36 36 37 38 39 40 41 42 43 44 45 45 45 45 46 46 47 47 47 47 48 48 49
24 25 25 25 26 27 28 28 28 28 29 29 30 31 32 33 33 34 35 36 37 38 39 40 41 42 43 43 44 45 45 46 46 47 47 48 48 48 48 48 49 50 51 52
26 26 26 27 28 29 29 30 30 30 31 31 32 33 33 34 35 36 37 39 39 40 41 42 43 44 44 45 46 46 46 47 48 49 50 50 51 51 51 51 51 52 53 54
28 28 29 29 30 30 30 31 31 32 32 33 34 35 36 37 38 39 40 41 42 43 43 44 45 46 46 47 48 48 49 49 50 51 52 52 53 53 53 54 54 55 55 55
29 29 30 30 30 31 31 32 33 34 34 35 36 38 39 40 41 42 43 43 44 45 46 46 47 48 49 50 50 51 52 53 53 54 54 54 54 55 55 56 56 56 56 56
30 31 31 32 32 33 33 34 35 36 36 37 39 40 41 41 42 43 44 45 46 47 48 49 50 51 52 52 53 53 54 55 56 56 56 56 56 56 57 57 57 57 57 57
33 33 33 34 34 35 36 36 37 38 39 40 41 42 43 45 46 46 47 48 48 49 50 52 52 53 53 54 55 56 56 57 57 58 58 58 58 58 58 59 58 58 57 56
36 35 36 36 37 38 38 39 40 41 42 43 44 45 46 47 47 48 48 49 50 51 52 53 54 54 55 56 56 57 57 58 58 58 58 59 59 59 58 58 57 57 56 55
37 37 38 38 39 40 40 41 42 43 44 45 46 47 47 47 48 48 49 50 51 53 53 54 55 55 56 57 57 58 58 58 58 58 58 58 58 57 57 56 55 54 54 54
39 39 40 40 41 41 42 43 44 45 45 46 47 47 47 48 49 50 51 52 52 53 54 54 55 55 56 57 57 58 58 58 58 58 57 57 56 55 55 54 54 53 52 51
39 40 40 41 42 42 43 43 44 45 45 46 47 47 48 49 50 51 51 52 52 53 53 54 54 55 56 56 57 58 58 58 57 57 56 55 55 54 53 52 51 50 49 48
39 39 40 41 41 42 43 43 44 45 46 46 47 47 48 49 50 50 51 51 52 52 53 54 55 55 56 57 57 57 57 56 55 55 54 53 52 51 50 49 49 47 46 45
39 40 41 41 41 42 43 44 44 45 45 46 47 48 49 49 49 50 51 51 52 53 53 54 55 55 56 56 56 56 55 54 53 53 52 51 50 49 48 48 47 46 45 44
41 41 41 42 42 42 43 44 45 45 45 46 47 47 48 48 49 49 50 51 51 52 52 53 54 54 55 55 54 53 53 52 51 51 50 49 48 47 46 46 45 45 44 44
41 41 41 41 42 42 43 44 45 45 46 46 46 47 47 48 49 49 50 50 50 51 52 52 52 52 52 52 51 51 50 50 49 48 47 46 45 45 44 44 44 43 43 42
41 41 42 42 42 43 44 44 45 45 46 46 46 47 47 48 48 49 49 50 50 51 51 51 51 50 50 49 49 49 49 48 47 46 45 44 44 43 43 42 42 42 41 41
Wind_Direction
188 188 191 196 204 211 215 217 221 227 222 211 215 216 219 227 238 246 252 257 261 261 264 267 271 276 281 286 292 295 298 303 308 308 308 309 309 310 309 309 309 310 310 309
205 202 202 207 210 214 220 221 223 228 229 226 230 233 236 243 251 258 261 265 269 272 274 274 276 278 281 285 288 291 293 296 300 301 302 304 304 305 306 306 305 305 305 305
217 219 220 217 217 219 222 226 229 233 237 240 239 244 247 254 262 267 269 272 275 276 278 279 280 280 282 286 288 290 292 293 295 296 297 298 300 300 301 302 303 304 303 301
227 227 226 224 225 225 227 229 233 236 238 242 243 246 253 259 265 270 276 277 276 277 279 282 283 283 284 285 287 288 290 291 292 294 295 295 296 297 298 298 299 300 301 301
228 228 228 229 232 233 232 232 235 239 245 250 252 255 257 262 268 274 278 279 279 280 282 283 283 283 284 285 286 287 288 289 291 293 294 294 295 296 296 297 297 298 298 298
231 231 231 231 234 236 235 236 241 247 251 255 258 261 263 266 270 275 277 279 280 281 282 284 285 284 284 285 286 287 287 289 291 292 293 294 295 295 295 296 296 296 296 295
237 238 237 238 241 241 242 245 247 251 255 257 260 263 266 268 271 275 277 279 281 282 283 284 285 285 285 286 287 288 288 289 290 292 293 293 293 293 294 294 295 294 294 293
242 243 243 244 245 246 249 249 251 253 256 260 263 265 267 270 273 275 278 280 282 283 283 284 285 285 286 287 288 288 289 289 290 291 292 293 293 293 293 293 293 292 291 291
245 247 249 250 251 252 253 255 256 258 260 263 266 269 270 272 274 277 279 281 283 284 284 285 286 287 287 287 287 288 289 290 291 291 291 291 292 292 292 292 291 291 290 289
247 248 250 252 253 255 257 259 261 263 264 266 268 271 273 274 275 277 279 281 283 284 285 285 286 287 287 287 287 288 289 289 290 291 291 291 292 292 292 291 290 289 289 288
250 252 253 253 255 258 259 261 263 265 267 269 271 273 274 276 277 278 279 281 283 284 285 286 286 286 287 287 288 289 289 290 291 291 291 291 291 292 292 291 289 289 288 287
252 253 254 255 256 259 262 264 266 269 271 272 273 274 275 276 277 279 280 281 283 284 286 287 288 288 288 288 289 290 290 291 291 291 291 291 291 291 291 290 289 289 288 288
255 256 257 258 260 262 264 266 269 271 272 274 275 276 277 277 279 280 282 283 284 285 287 288 289 290 290 290 290 291 291 291 291 291 291 291 291 291 290 288 288 288 288 288
257 259 260 262 263 265 267 269 271 273 274 274 276 277 279 280 281 282 283 284 285 286 287 289 290 291 291 292 292 292 291 291 291 291 291 291 291 291 291 289 289 288 288 287
257 260 262 264 265 266 268 269 271 272 273 275 277 278 280 281 282 283 284 285 286 287 288 289 290 291 292 292 292 292 292 292 292 292 292 292 292 292 291 291 290 290 289 288
260 262 264 265 266 267 269 270 272 273 275 276 277 279 281 282 283 284 285 286 287 288 289 290 291 292 292 293 293 292 292 292 293 293 293 292 292 291 291 291 291 290 289 288
261 263 264 265 266 268 270 272 273 275 276 277 279 280 281 283 284 285 286 287 287 288 289 290 291 292 293 293 293 293 293 293 293 293 293 293 292 292 292 292 292 291 290 289
262 263 265 266 267 269 270 272 273 275 276 278 280 281 282 283 284 285 286 287 288 289 290 291 292 292 293 293 294 294 294 294 294 294 293 293 293 293 293 293 292 291 290 289
263 265 267 268 270 271 272 273 275 277 278 280 281 282 283 284 285 285 286 287 288 289 290 291 292 293 293 294 294 295 295 295 295 294 294 293 293 293 293 293 292 291 291 289
264 266 268 269 270 272 273 275 276 278 279 280 282 283 284 284 285 286 287 288 289 290 290 291 292 293 293 294 294 295 295 295 295 295 294 294 294 293 293 292 292 292 291 290
266 268 269 270 271 273 275 276 278 279 280 281 282 283 284 284 285 287 287 288 289 290 291 292 292 293 293 294 295 295 296 296 296 295 295 295 294 294 293 293 293 292 292 290
268 270 271 272 273 274 275 277 278 280 281 282 283 284 285 286 286 287 288 289 290 291 292 292 293 293 294 294 295 296 296 296 296 295 295 295 294 294 294 293 292 292 292 290
269 270 271 272 274 275 276 278 279 281 282 283 284 285 286 287 288 289 289 290 291 292 293 293 294 294 295 295 296 296 296 296 296 295 295 295 294 294 294 294 293 292 292 291
271 272 272 273 274 276 277 279 281 282 283 284 285 286 287 288 289 290 290 291 292 293 294 294 295 295 296 296 297 297 296 296 296 295 295 295 294 294 294 293 293 292 292 291
271 273 274 275 276 277 279 280 282 283 284 285 286 287 288 289 290 291 292 293 293 294 295 295 296 296 296 297 297 297 297 296 296 296 295 295 294 294 294 293 293 293 292 291
272 273 275 276 277 279 280 281 282 284 285 286 287 288 289 290 290 291 293 294 294 295 296 296 297 297 297 297 297 297 297 298 298 297 296 296 295 295 294 294 293 293 292 291
273 274 275 277 278 279 280 282 283 283 284 285 286 287 288 290 291 292 293 294 295 296 297 297 297 297 297 297 298 298 299 299 298 297 297 296 296 295 295 294 294 294 293 291